Regional Weather Roundup
Issued by NWS Goodland, KS

Home | Current Version | Previous Version | Text Only | Print | Product List | Glossary On
Versions: 1 2 3 4 5 6 7 8 9 10 11 12 13 14 15 16 17 18 19 20 21 22 23 24 25 26 27 28 29 30 31 32 33 34 35 36 37 38 39 40 41 42 43 44 45 46 47 48 49 50
000
ASUS43 KGLD 211508
RWRGLD

GOODLAND FORECAST AREA HOURLY WEATHER ROUNDUP
NATIONAL WEATHER SERVICE GOODLAND KS
900 AM MDT MON MAY 21 2018

...OFFICIAL OBSERVATIONS...

CITY           SKY/WX    TMP DP  RH WIND       PRES   REMARKS
GOODLAND KS    CLOUDY    54  53  97 S20G28    30.06S
HILL CITY KS   CLOUDY    55  55 100 S5        30.11R
IMPERIAL NEB   SUNNY     60  52  74 S12G21    30.05F
MCCOOK NEB     SUNNY     60  53  77 SE8       30.06S
AKRON CO       MOSUNNY   56  50  80 S10       30.03S
BURLINGTON CO  MOSUNNY   56  51  84 S18       30.06R
LIMON CO       CLOUDY    59  49  69 SE8       30.05F
$$

...UNOFFICIAL OBSERVATIONS...

CITY           SKY/WX    TMP DP  RH WIND       PRES   REMARKS
COLBY KS       MOSUNNY   59  54  82 S16       30.10R
NORTON KS      SUNNY     55  55 100 SE7       30.08
SHARON SPRINGS   N/A     57  54  90 MISG        N/A
KIT CARSON CO    N/A     60  52  75 MISG        N/A
YUMA CO        CLOUDY    52  41  66 S15       30.03F
$$



USA.gov is the U.S. government's official web portal to all federal, state and local government web resources and services.